Tracking 19903 objects as of 16-Oct-2019
HD Live streaming from Space Station
objects crossing your sky now

COSMOS 1275 DEB

Track COSMOS 1275 DEB now!
10-day predictions


NORAD ID: 42096
Int'l Code: 1981-053PG
Perigee: 815.6 km
Apogee: 895.2 km
Inclination: 82.7 °
Period: 101.9 minutes
Semi major axis: 7226 km
RCS: Unknown
Launch date: June 4, 1981
Source: Commonwealth of Independent States (former USSR) (CIS)
Launch site: PLESETSK MISSILE AND SPACE COMPLEX (PKMTR)

Note: This is SATELLITE DEBRIS
aabbcc
Your satellite tracking list
Your tracking list is empty




NASA's NSSDC Master Catalog

Two Line Element Set (TLE):
1 42096U 81053PG  19280.75290329  .00001232  00000-0  64003-3 0  9999
2 42096  82.7275  66.9058 0055067 183.1620 176.9217 14.13259369848086
Source of the keplerian elements: AFSPC